Powrót do katalogu

STARLINK-11236

AktywnyŁącznośćVLEO
NORAD 61062·PAYLOAD·🇺🇸 United States

Wystrzelony Sep 13, 2024 z Vandenberg Space Force Base

Loading…

Następne Przeloty (najbliższe 24 godziny)

TLE

ŚwieżeSource: CelesTrak SupGP

Epoka: Sep 15, 2026, 03:14 UTC

1 61062C 24164N   26258.13520833  .00020466  00000+0  16846-3 0  2583
2 61062  53.1566  97.4412 0000974  92.6141 225.4681 15.69716853    13

Śledź STARLINK-11236 w czasie rzeczywistym z AllMySat

Download on the App Store